TimeEST,TemperatureF,Dew PointF,Humidity,Sea Level PressureIn,VisibilityMPH,Wind Direction,Wind SpeedMPH,Gust SpeedMPH,PrecipitationIn,Events,Conditions,WindDirDegrees,DateUTC
12:54 AM,33.1,17.1,52,30.31,10.0,NW,11.5,-,N/A,,Clear,310,2013-12-12 05:54:00
1:54 AM,34.0,17.1,50,30.32,10.0,WNW,16.1,19.6,N/A,,Clear,300,2013-12-12 06:54:00
2:54 AM,32.0,16.0,52,30.33,10.0,WNW,6.9,-,N/A,,Partly Cloudy,290,2013-12-12 07:54:00
3:54 AM,30.0,16.0,56,30.33,10.0,NW,6.9,-,N/A,,Mostly Cloudy,310,2013-12-12 08:54:00
4:54 AM,30.9,15.1,52,30.33,10.0,NW,15.0,-,N/A,,Clear,310,2013-12-12 09:54:00
5:54 AM,28.9,15.1,56,30.36,10.0,NW,16.1,21.9,N/A,,Clear,320,2013-12-12 10:54:00
6:54 AM,28.0,12.9,53,30.39,10.0,NW,11.5,-,N/A,,Partly Cloudy,320,2013-12-12 11:54:00
7:54 AM,26.1,12.0,55,30.43,10.0,NW,6.9,-,N/A,,Partly Cloudy,310,2013-12-12 12:54:00
8:54 AM,28.9,10.9,47,30.44,10.0,NW,9.2,-,N/A,,Clear,310,2013-12-12 13:54:00
9:54 AM,30.0,10.0,43,30.45,10.0,West,11.5,17.3,N/A,,Clear,280,2013-12-12 14:54:00
10:54 AM,30.9,8.1,38,30.43,10.0,Variable,6.9,-,N/A,,Clear,0,2013-12-12 15:54:00
11:54 AM,33.1,6.1,32,30.40,10.0,WNW,11.5,-,N/A,,Clear,290,2013-12-12 16:54:00
12:54 PM,35.1,6.1,30,30.40,10.0,NW,17.3,-,N/A,,Clear,310,2013-12-12 17:54:00
1:54 PM,36.0,3.9,26,30.37,10.0,NW,17.3,24.2,N/A,,Clear,310,2013-12-12 18:54:00
2:54 PM,36.0,1.0,23,30.36,10.0,NW,17.3,21.9,N/A,,Clear,310,2013-12-12 19:54:00
3:54 PM,36.0,5.0,27,30.38,10.0,NW,12.7,-,N/A,,Clear,310,2013-12-12 20:54:00
4:54 PM,33.1,3.9,29,30.39,10.0,NW,10.4,-,N/A,,Clear,310,2013-12-12 21:54:00
5:54 PM,30.0,6.1,36,30.40,10.0,WNW,6.9,-,N/A,,Clear,290,2013-12-12 22:54:00
6:54 PM,30.0,6.1,36,30.40,10.0,West,4.6,-,N/A,,Clear,270,2013-12-12 23:54:00
7:54 PM,28.9,5.0,36,30.40,10.0,West,3.5,-,N/A,,Clear,280,2013-12-13 00:54:00
8:54 PM,27.0,6.1,41,30.39,10.0,West,4.6,-,N/A,,Clear,270,2013-12-13 01:54:00
9:54 PM,27.0,7.0,43,30.37,10.0,West,6.9,-,N/A,,Clear,280,2013-12-13 02:54:00
10:54 PM,27.0,7.0,43,30.36,10.0,Calm,Calm,-,N/A,,Clear,0,2013-12-13 03:54:00
11:54 PM,28.0,8.1,43,30.36,10.0,West,6.9,-,N/A,,Clear,270,2013-12-13 04:54:00